Terug naar catalogus

STARLINK-31909

ActiefCommunicatieVLEO
NORAD 59663·PAYLOAD·🇺🇸 United States

Gelanceerd May 6, 2024 vanaf Cape Canaveral Space Force Station

Loading…

Volgende Passages (komende 24 uur)

TLE

VersSource: CelesTrak SupGP

Epoch: Sep 15, 2026, 02:19 UTC

1 59663C 24084K   26258.09701389 -.00018899  00000+0 -68438-3 0  2583
2 59663  43.0043  51.7625 0001630 272.2789 145.2074 15.27595024    12

Volg STARLINK-31909 in realtime met AllMySat

Download on the App Store